Skip Page Navigation
NASA JPL Caltech
NASA Logo - Jet Propulsion Laboratory + View the NASA Portal
+ Center for Near-Earth Object Studies
JPL Home Earth Solar System Stars & Galaxies Technology
JPL Solar System Dynamics
BODIES ORBITS EPHEMERIDES TOOLS PHYSICAL DATA DISCOVERY FAQ SITE MAP
JPL Small-Body Database Browser
Search: [ help ]  
136162 (2003 UR29)
Classification: Main-belt Asteroid          SPK-ID: 2136162
Ephemeris | Orbit Diagram | Orbital Elements | Mission Design | Physical Parameters | Discovery Circumstances ]

[ show orbit diagram ]
Orbital Elements at Epoch 2459000.5 (2020-May-31.0) TDB
Reference: JPL 13 (heliocentric ecliptic J2000)
 Element Value Uncertainty (1-sigma)   Units 
e .106089072198233 7.7382e-08  
a 2.283222548080233 1.5713e-08 au
q 2.040997586332316 1.7113e-07 au
i 7.205604168853307 6.6711e-06 deg
node 41.90283463104432 4.6979e-05 deg
peri 11.70909473645967 5.6875e-05 deg
M 279.7451162601258 3.3776e-05 deg
tp 2459281.424594776252
(2021-Mar-07.92459478)
0.00011963 TDB
period 1260.145793086524
3.45
1.3009e-05
3.562e-08
d
yr
n .285681229882328 2.9491e-09 deg/d
Q 2.525447509828151 1.738e-08 au
  Orbit Determination Parameters
   # obs. used (total)      423  
   data-arc span      8247 days (22.58 yr)  
   first obs. used      1996-10-11  
   last obs. used      2019-05-11  
   planetary ephem.      DE431  
   SB-pert. ephem.      SB431-N16  
   condition code      0  
   norm. resid. RMS      .5662  
   source      ORB  
   producer      Otto Matic  
   solution date      2019-May-30 07:12:46  

Additional Information
 Earth MOID = 1.05235 au 
 Jupiter MOID = 2.78721 au 
 T_jup = 3.586 
[ show covariance matrix ]

Ephemeris | Orbit Diagram | Orbital Elements | Mission Design | Physical Parameters | Discovery Circumstances ]

Physical Parameter Table
Parameter Symbol Value Units Sigma Reference Notes
absolute magnitude H 16.4   n/a MPO475185  

136162 (2003 UR29)          Discovered 2003-Oct-21 by Fountain Hills at Fountain Hills
Reference: 20060907/Numbers.arcLast Updated: 2006-09-10
Ephemeris | Orbit Diagram | Orbital Elements | Mission Design | Physical Parameters | Discovery Circumstances ]
ABOUT SSD CREDITS/AWARDS PRIVACY/COPYRIGHT GLOSSARY LINKS
FirstGov 2020-Jul-09 22:28 UT
(server date/time)  
NASA Home Page
Site Manager:   Ryan S. Park
Webmaster  Alan B. Chamberlin